Location: Branche des Alpilles
(43.6087°N, 4.6976°E)
Time: 08:43:16
(UTC+00:00)

N. Korean satellite - Pass Details

Date: 04 October 2021
Orbit: 450 x 495 km, 97.3° (Epoch: 15 October)

Event Time Altitude Azimuth Distance (km) Brightness Sun altitude
Rises 04:00:49 0° 30° (NNE) 2,561 10.9 -19.1°
Reaches altitude 10° 04:03:33 10° 53° (NE) 1,682 10.3 -18.6°
Maximum altitude 04:05:50 16° 92° (E) 1,359 9.8 -18.2°
Drops below altitude 10° 04:08:07 10° 132° (SE) 1,684 9.8 -17.8°
Sets 04:10:50 0° 154° (SSE) 2,565 10.4 -17.3°
